LIMFLIRP

Guest
Details From LIMF - Torino Caselle
To LIRP - PISA
Flight Number -
Tags generated
Created
Modified
Stats Distance 149 nm / 276 km
Max Altitude 15,400 ft / 4,694 m
Waypoints 3
Social Downloads 0
Likes 0
Share VATSIM

Download

Looking for another format? Having issues loading an existing format? Contact us
Advertisement - Login to hide

Notes

Basic altitude profile: - Ascent Rate: 2500ft/min - Ascent Speed: 250kts - Cruise Altitude: 35000ft - Cruise Speed: 420kts - Descent Rate: 1500ft/min - Descent Speed: 250kts Options: - Use NATs: no - Use PACOTS: no - Use low airways: yes - Use high airways: no

Route

LIMF GEN LIRP

ID Type Via Altitude Latitude Longitude Leg Dist Tot Dist Heading (true) Name
O LIMF APT - 0 ft / 0 m 45.20076˚ 7.64963˚ - 0 nm - Torino Caselle
GEN VOR - 15,400 ft / 4,694 m 44.42444˚ 9.08233˚ 76 nm 76 nm 127° / 128° GENOVA VOR-DME
O LIRP APT - 0 ft / 0 m 43.68388˚ 10.39272˚ 71 nm 148 nm 128° / 129° PISA

Altitude Profile

Advertisement - Login to hide

LIMF

Details ICAO LIMF (TRN)
Name Torino Caselle
Region Italy
Timezone Europe/Rome (UTC+1.0)
Stats Elevation 989 ft / 301 m (AMSL)
Location 45.200763° 7.649630°
Runways 1
Magnetic Variation 2.121° E

METAR

LIMF 111920Z VRB02KT 1600 -SN BKN004 OVC025 00/00 Q0994 R36/590295

Decode

TAF

TAF LIMF 111700Z 1118/1218 VRB05KT 1200 SN OVC005 BECMG 1120/1122 2500 BR BKN025 BKN060 TEMPO 1200/1206 0500 FZFG BKN005 BECMG 1207/1210 7000

Decode

Departure Runways

ID Width Length Bearing (true) Bearing (mag) Surface Threshold Offset Overrun Length
18 197 ft / 60 m 10,835 ft / 3,303 m 182.56° 180.44° Asphalt 2,378 ft / 725 m 970 ft / 296 m
36 197 ft / 60 m 10,835 ft / 3,303 m 2.56° 0.44° Asphalt 1,148 ft / 350 m 0 ft / 0 m

LIRP

Details ICAO LIRP (PSA)
Name PISA
Region Italy
Timezone Europe/Rome (UTC+1.0)
Stats Elevation 6 ft / 2 m (AMSL)
Location 43.683883° 10.392724°
Runways 2
Magnetic Variation 2.703° E

METAR

LIRP 111915Z 17015G30KT 9999 FEW020 SCT050 16/11 Q0998 TEMPO 5000 RA

Decode

TAF

TAF LIRP 111700Z 1118/1218 20015KT 9999 RA SCT015 BKN040 TEMPO 1118/1203 20015G30KT PROB40 TEMPO 1121/1206 5000 SHRA FEW010CB BKN025

Decode

Destination Runways

ID Width Length Bearing (true) Bearing (mag) Surface Threshold Offset Overrun Length
04L 141 ft / 43 m 9,158 ft / 2,791 m 36.70° 34.00° Asphalt 979 ft / 298 m 0 ft / 0 m
04R 148 ft / 45 m 9,819 ft / 2,993 m 36.72° 34.02° Asphalt 490 ft / 149 m 0 ft / 0 m
22L 148 ft / 45 m 9,819 ft / 2,993 m 216.73° 214.03° Asphalt 843 ft / 257 m 0 ft / 0 m
22R 141 ft / 43 m 9,158 ft / 2,791 m 216.72° 214.02° Asphalt 0 ft / 0 m 0 ft / 0 m

Approach Navaids

Runway Type Ident Frequency Range Bearing (true) Bearing (mag) Slope Elevation
04R Localiser IPI 109.70 MHz 18 nm / 33 km 36.76° 34.06° - 7 ft / 2 m (AMSL)
04R Glidescope IPI 109.70 MHz 10 nm / 19 km 36.72° 34.02° 3.00° 3 ft / 1 m (AMSL)

Popular Alternatives